This is the latest recevied weather packets stored in our database for station/object KF0TNT. If no packets are shown the sender has not sent any weather packets the latest 10 day(s).
| Time | Temp. | Humidity | Pressure | Rain* | Wind** | Luminosity | Snow |
|---|---|---|---|---|---|---|---|
| 1777825798 | 14.44° C | 25% | 1021.5 hPa | 0 mm | - | 355 W/m² | - |
| 1777825496 | 14.44° C | 24% | 1021.3 hPa | 0 mm | - | 349 W/m² | - |
| 1777825193 | 14.44° C | 25% | 1021.3 hPa | 0 mm | - | 381 W/m² | - |
| 1777824890 | 14.44° C | 25% | 1021.3 hPa | 0 mm | - | 353 W/m² | - |
| 1777824586 | 14.44° C | 25% | 1021.2 hPa | 0 mm | - | 369 W/m² | - |
| 1777824283 | 14.44° C | 25% | 1021.3 hPa | 0 mm | - | 415 W/m² | - |
| 1777823978 | 14.44° C | 24% | 1021.1 hPa | 0 mm | - | 361 W/m² | - |
| 1777823676 | 14.44° C | 25% | 1021.3 hPa | 0 mm | - | 349 W/m² | - |
| 1777823372 | 14.44° C | 25% | 1021.3 hPa | 0 mm | - | 355 W/m² | - |
| 1777823071 | 13.89° C | 27% | 1021.3 hPa | 0 mm | - | 335 W/m² | - |
| 1777822768 | 13.89° C | 26% | 1021.5 hPa | 0 mm | - | 344 W/m² | - |
| 1777822466 | 13.89° C | 28% | 1021.5 hPa | 0 mm | - | 348 W/m² | - |
| 1777822163 | 13.33° C | 28% | 1021.6 hPa | 0 mm | - | 343 W/m² | - |
| 1777821860 | 13.33° C | 29% | 1021.6 hPa | 0 mm | - | 311 W/m² | - |
| 1777821558 | 13.33° C | 28% | 1021.7 hPa | 0 mm | - | 286 W/m² | - |
| 1777821256 | 13.33° C | 28% | 1022 hPa | 0 mm | - | 264 W/m² | - |
| 1777820952 | 12.78° C | 29% | 1021.7 hPa | 0 mm | - | 247 W/m² | - |
| 1777820649 | 12.78° C | 29% | 1021.7 hPa | 0 mm | - | 244 W/m² | - |
| 1777820345 | 12.78° C | 29% | 1021.6 hPa | 0 mm | - | 242 W/m² | - |
| 1777820043 | 12.22° C | 30% | 1021.7 hPa | 0 mm | - | 229 W/m² | - |
| 1777819739 | 12.22° C | 30% | 1021.8 hPa | 0 mm | - | 212 W/m² | - |
| 1777819438 | 12.22° C | 30% | 1021.8 hPa | 0 mm | - | 199 W/m² | - |
| 1777819135 | 11.67° C | 31% | 1021.8 hPa | 0 mm | - | 189 W/m² | - |
| 1777818832 | 11.67° C | 32% | 1022 hPa | 0 mm | - | 183 W/m² | - |
| 1777818528 | 11.11° C | 33% | 1022 hPa | 0 mm | - | 175 W/m² | - |
* Rain latest hour (hover to see other rain measurements)
** Current wind speed in m/s (hover to see current wind gust speed)